Погода в Томмоте

Погода в Томмоте : погода сейчас, прогноз погоды и архив. Всё, что Вы хотите узнать о погоде в Томмоте!

Поиск расширенной информации на нашем сайте:

Другие новости

Новости СМИ2

Главная страница сайта

Новости сайта

03.07.2017

Напоминаем, что на нашем специализированном сайте Метеоцентр.Азия вы можете получить высокодетализированные автоматические прогнозы погоды по пунктам России, СНГ и мира в авиационном формате (включающие направление и скорость ветра, видимость, явления погоды, количество и форму облачности, нижнюю и верхнюю границу облачности).

Рекомендуем: Смотрите подробности газонокосилки сабо ремонт тут.

Погода в Томмоте - сегодня

Время (UTC), дата Ветер
(°,м/с) 
Видим.   Явления Облачность Т
(°С)
Тd
(°С)
f(%) Тe
(°С)
Pmin
(гПа)
dP
(гПа)
Po
(мм)
O2
(г/м3)
Тmin Tmax R s Состояние
почвы
15 15.04.18 тихо ()   20000 м    ясно 
-4.5 -6.5 86 -5  1003  -0.5  726  298           
18 15.04.18 тихо ()   20000 м    ясно 
-7.5 -8.1 95 -8  1001.8  -1.6  725  301           
21 15.04.18 тихо ()   20000 м    10/0 верхняя 
[Cs]
-8.2 -8.8 95 -8  1000.9  -0.9  724  302           
03 16.04.18 330 (СЗ) 20000 м    10/0 верхняя 
[Cs]
+6.1 -5.5 43 +6  999.9  0.5  724  286           
06 16.04.18 310 (СЗ) 20000 м    10/10 600 м кучево-дожд. 
[Cb cap]
+4.5 -2.2 62 +3  1001.5  1.4  725  288           
09 16.04.18 310 (СЗ) 10 км  слаб. ливневой снег  10/10 600 м кучево-дожд. 
[Cb cap]
+1.3 -0.4 88 1004.1  2.1  727  292           
15 16.04.18 310 (СЗ) 10 км  слаб. ливневой снег  10/10 600 м кучево-дожд. 
[Cb cap]
-1.3 -2.2 94 -1  1008.9  1.5  730  296           
18 16.04.18 340 (С) 20000 м  {ливн. осадки}  10/5 600 м кучево-дожд., верхняя 
[Cb cap|Cs]
-1.8 -2.6 94 -1  1008.9  730  296           
03 17.04.18 270 (З) 20000 м    6/6 600 м 
[Cu med, cong]
+3.3 -8.4 42 +3  1009.3  -1  731  292           
06 17.04.18 310 (СЗ) 20000 м    10/8 600 м кучево-дожд., верхняя 
[Cb cap|Ci sp]
+4.8 -11.4 30 +4  1008.5  -0.6  731  290           
09 17.04.18 330 (СЗ) 20000 м    10/8 600 м кучево-дожд., верхняя 
[Cb cap|Ci sp]
+5.1 -12.9 26 +6  1007.7  -0.8  730  290           
12 17.04.18 190 (Ю) 20000 м    ясно 
-1.6 -9.8 54 -1  1008.9  0.4  730  297    +6.4       
15 17.04.18 тихо ()   20000 м    ясно 
-6.7 -9.1 83 -7  1009.9  0.3  731  303           
18 17.04.18 тихо ()   20000 м    6/6 1000 м 
[Sc]
-5.7 -7.9 84 -6  1009.8  0.1  731  301           
21 17.04.18 160 (Ю) 20000 м    8/8 1000 м 
[Sc]
-4.6 -8.5 74 -4  1009.7  731  300           
03 18.04.18 200 (Ю) 20000 м    ясно 
+8.7 -11 24 +8  1006  -1.5  729  286           
06 18.04.18 180 (Ю) 20000 м    8/0 верхняя 
[Ci fib]
+10 -10.2 23 +10  1004  -1.8  728  284           
09 18.04.18 180 (Ю) 20000 м    3/0 верхняя 
[Ci fib]
+9.6 -10.6 23 +9  1003  -1  727  284           
12 18.04.18 200 (Ю) 20000 м    ясно 
+2.2 -8.3 46 +2  1003.7  -0.2  727  291    +10.5       
15 18.04.18 170 (Ю) 20000 м    ясно 
-2.2 -5.8 76 -2  1003.3  -0.9  726  296           
18 18.04.18 тихо ()   20000 м    ясно 
-7 -9.5 82 -7  1003.5  -0.5  726  301           
21 18.04.18 210 (ЮЗ) 20000 м    10/0 верхняя 
[Cs]
-5.7 -7.2 89 -5  1003.2  726  299           
03 19.04.18 310 (СЗ) 10 км  слаб. ливневой снег  10/10 600 м кучево-дожд. 
[Cb cap]
-0.1 -1.9 88 -2  1008.1  2.5  730  294           
06 19.04.18 320 (СЗ) 20000 м  {ливн. осадки, морось}  10/5 600 м кучево-дожд., верхняя 
[Cb cap|Cs]
+2.4 -6.2 53 +2  1009  1.3  731  292           
09 19.04.18 340 (С) 20000 м    10/5 600 м кучево-дожд., верхняя 
[Cb cap|Cs]
+3 -11.6 33 +2  1009.9  0.8  731  292           
Время (UTC), дата Ветер
(°,м/с) 
Видим.   Явления Облачность Т
(°С)
Тd
(°С)
f(%) Тe
(°С)
Pmin
(гПа)
dP
(гПа)
Po
(мм)
O2
(г/м3)
Тmin Tmax R s Состояние
почвы

Для получения пояснительной информации подведите курсор к названию столбца.

ПОГОДА в Томмоте - архив

Всё, что Вы хотите узнать о погоде в Томмоте - удобно и подробно!

Выберите нужную дату (начиная с 1 января 2015* года) и нажмите кнопку "Найти".
Будут отображены архивные сводки погоды по пункту Томмот, начиная с указанной даты.


Отображать данные в формате CSV (для использования в таблицах Excel)


Внимание! Наш архив погоды предназначен исключительно для личного некоммерческого использования в познавательных целях. Если Вам необходимы официальные справки о состоянии погоды (для производственных, юридических, коммерческих и т.п. целей), обращайтесь в органы Росгидромета.

*Примечание: данная дата относится к архиву по метеостанциям СССР (Россия, СНГ, Балтия).
Архив по метеостанциям Зарубежной Европы и Азии (кроме Китая) хранится 10 дней, по другим регионам земного шара (Китай, Африка, Америка, Австралия, Океания) - 1 день.

Томмот - район местоположения метеостанции


Название, широта, долгота, высота метеостанции:
Томмот 58.9°ш. 126.3°д. 283 м над ур. моря [Российская Федерация]

Дополнительная информация

В oтличие oт бoльшинства пoгoдных сайтoв мы публикуем пoдрoбную метеoинфoрмацию в детальнoм прoфессиoнальнoм фoрмате.

Характеристики температуры и влажнoсти вoздуха измеряются на высoте 2 м в тени вдали oт зданий и деревьев.
Скoрoсть ветра измеряется на высoте 10 м (на урoвне рoста челoвека скoрoсть ветра ниже в 1.5-2 раза). Если метеoстанция нахoдится в гoрoде или в лесу, тo скoрoсть ветра занижена на 2-4 м/с пo сравнению с oткрытым местoм. Скoрoсть ветра над акватoриями крупных рек и oзёр, а также на вершинах хoлмoв на 2-5 м/с выше, чем в oбычных услoвиях.
Атмoсфернoе давление в разных тoчках местнoсти мoжет значительнo oтличаться oт давления на метеoстанции, в зависимoсти oт услoвий рельефа (при пoдъёме на 10 м давление пoнижается примернo на 1 мм рт.ст.).